Regional Weather Roundup
Issued by NWS

Home | Current Version | Previous Version | Graphics & Text | Print | Product List | Glossary On
Versions: 1 2 3 4 5 6 7 8 9 10 11 12 13 14 15 16 17 18 19 20 21 22 23 24 25 26 27 28 29 30 31 32 33 34 35 36 37 38 39 40 41 42 43 44 45 46 47 48 49 50
000
ASUS45 KBOU 261607
RWRCO

WEATHER ROUNDUP FOR COLORADO
NATIONAL WEATHER SERVICE DENVER/BOULDER CO
900 AM MST WED NOV 26 2014

NOTE: "FAIR" INDICATES FEW OR NO CLOUDS BELOW 12000 FEET WITH NO
SIGNIFICANT WEATHER AND/OR OBSTRUCTIONS TO VISIBILITY.

COZ001>005-013-030-031-261700-
...NORTHWEST COLORADO...

CITY           SKY/WX    TMP DP  RH WIND       PRES   REMARKS
CRAIG          PTSUNNY   35  27  72 CALM      30.32R
HAYDEN         CLOUDY    34  25  69 W10       30.31R WCI  26
MEEKER         SUNNY     34  24  67 NE3       30.34R
MOUNT WERNER   NOT AVBL
STEAMBOAT SPGS CLOUDY    33  30  91 CALM      30.30R
WALDEN         PTSUNNY   34  27  75 W13G20    30.21R WCI  25
$$

COZ006>008-011-261700-
...WEST CENTRAL VALLEYS...

CITY           SKY/WX    TMP DP  RH WIND       PRES   REMARKS
GRAND JUNCTION SUNNY     31  20  63 S5        30.40R WCI  26
MONTROSE       SUNNY     35  21  56 SE3       30.41R
EAGLE          PTSUNNY   37  25  60 W10       30.37R
RIFLE          SUNNY     28  22  78 CALM      30.40R
DELTA          SUNNY     39  26  59 NE5       30.41R
NUCLA          SUNNY     34  27  75 CALM      30.45R
$$

COZ017>023-064>068-261700-
...SOUTHWEST COLORADO...

CITY           SKY/WX    TMP DP  RH WIND       PRES   REMARKS
DURANGO        SUNNY     28  14  55 CALM      30.36R
CORTEZ         SUNNY     39  25  57 E6        30.39S
PAGOSA SPRINGS SUNNY     30  16  56 E3        30.37R
TELLURIDE      NOT AVBL
WOLF CREEK PAS SUNNY     25  18  74 MISG      30.38R
$$

COZ009-010-012-014-032>034-037-058>063-261700-
...CENTRAL COLORADO...

CITY           SKY/WX    TMP DP  RH WIND       PRES   REMARKS
ASPEN          CLOUDY    29  25  85 S3        30.37R
BUENA VISTA    PTSUNNY   44  21  41 SW12      30.22R
COPPER MTN     CLOUDY    27  21  80 W46G61    30.27R WCI   7
BERTHOUD PASS  NOT AVBL
COTTONWOOD PAS CLOUDY    36  21  55 W28G46    30.24R
GUNNISON       SUNNY     34  25  69 N7        30.39R WCI  28
KREMMLING      CLOUDY    34  27  75 SW12G21   30.31R WCI  25
LEADVILLE      CLOUDY    27  22  81 NW18G26   30.33R WCI  14
MONARCH PASS   CLOUDY    21  19  93 MISG      30.39R
SALIDA         MOSUNNY   46  24  41 W17G31    30.30R
SUNLIGHT       CLOUDY   N/A N/A N/A SW3       30.40R
WILKERSON PASS SUNNY     28  19  69 NW10G31   30.26R WCI  19
$$

COZ069>075-261700-
...SAN LUIS VALLEY/SANGRE DE CRISTO MOUNTAINS...

CITY           SKY/WX    TMP DP  RH WIND       PRES   REMARKS
ALAMOSA        SUNNY     28  14  55 S5        30.32R WCI  23
LA VETA PASS   SUNNY     28  19  69 S12G23    30.27R WCI  18
SAGUACHE       NOT AVBL
$$

COZ035-036-038>040-261700-
...NORTHERN COLORADO FRONT RANGE...

CITY           SKY/WX    TMP DP  RH WIND       PRES   REMARKS
DENVER INTL AP MOSUNNY   30  20  66 E8        30.22R WCI  22
DMNS CITY PARK   N/A     32  22  64 SE9       30.19R WCI  25
AURORA         MOSUNNY   29  20  66 SE7       30.20S WCI  22
FRONT RANGE AP NOT AVBL
ERIE MUNI ARPT MOSUNNY   33  22  66 E12       30.22R WCI  24
BOULDER MUN AP PTSUNNY   32  23  69 E7        30.21R WCI  26
CENTENNIAL     MOSUNNY   29  20  69 S14       30.16F WCI  18
BROOMFIELD     PTSUNNY   30  23  74 E12       30.18  WCI  21
FORT COLLINS   PTSUNNY   30  21  69 S9        30.23R WCI  22
LONGMONT       PTSUNNY   33  23  66 SE6       30.24R WCI  27
$$

COZ041-046-047-076>085-087-088-261700-
...PIKES PEAK/PALMER DIVIDE AND SOUTHERN FOOTHILLS...

CITY           SKY/WX    TMP DP  RH WIND       PRES   REMARKS
COLO. SPRINGS  CLOUDY    28  24  85 S8        30.22S WCI  20
A. F. ACADEMY  CLOUDY    27  24  87 SE8       30.19F WCI  19
ELLICOTT       NOT AVBL
FALCON         NOT AVBL
FORT CARSON    CLOUDY    29  23  79 SE13      30.22R WCI  18
LIMON          MOSUNNY   27  20  75 NW8       30.23R WCI  19
MONUMENT HILL  CLOUDY    23  23 100 S8        30.16S FOG     WCI  14
TRINIDAD       SUNNY     31  25  78 SE5       30.23F WCI  26
$$

COZ042>045-048>051-090-091-261700-
...NORTHEAST COLORADO...

CITY           SKY/WX    TMP DP  RH WIND       PRES   REMARKS
GREELEY ARPT   CLOUDY    32  21  64 S5        30.24S WCI  27
AKRON          CLOUDY    27  25  92 NW10      30.23R WCI  17
BURLINGTON     CLOUDY    30  26  85 NW17      30.24R WCI  18
WRAY           CLOUDY    33  29  86 NW10      30.25R WCI  24
STERLING       LGT SNOW  32  30  93 NW7       30.24R WCI  26
HOLYOKE        LGT SNOW  32  28  86 N9        30.25R WCI  24
FORT MORGAN    CLOUDY    30  25  83 W5        30.25R WCI  25
$$

COZ086-089-092>099-261700-
...SOUTHEAST COLORADO...

CITY           SKY/WX    TMP DP  RH WIND       PRES   REMARKS
PUEBLO         CLOUDY    33  27  78 VRB3      30.26R
LA JUNTA       MOSUNNY   36  26  67 W6        30.28R
LAMAR          PTSUNNY   36  25  64 W9        30.27R
SPRINGFIELD      N/A     35  25  66 N16       30.27R WCI  25
$$



USA.gov is the U.S. government's official web portal to all federal, state and local government web resources and services.